OBJECT AH, 67279

Orbit data source: Space-Track

You're viewing an Uncataloged Satellite

Recently launched and/or uncataloged satellites may have evolving metadata. Metadata may include but not limited to: Owner, Maufacturer, Bus, Motor, and Mission.

OBJECT AH, 67279 is a satellite in SSO that was launched on Sun, 28 Dec 2025 UTC via a SOYUZ-2-1B launch vehicle from the Vostochny Cosmodrome (VOSTO). Unknown objects in Earth's orbit typically refer to objects detected orbiting the Earth but have not yet been identified or cataloged. These objects could be anything from previously untracked satellites, spent rocket stages, debris from satellite collisions, or even natural meteoroids temporarily captured by Earth's gravity.

Loading next visibility...
Identifier
67279, 2025-313AH
Orbit
SSO
Country
Flag of TBDTBD
Related business
Flag of ECEquinoccial Technological University (EC)
Manufacturer
UTE/YUZGU
Mission
Operational Amateur Technology
Bus & Motor
CUBESAT 3U, Unknown motor
Mass
5 kg wet, 5 kg dry
Launch date (UTC)
2025-12-28 (6 months ago)
Launch vehicle
SOYUZ-2-1B
Launch site
Vostochny Cosmodrome (VOSTO)
Object type
Unknown
Shape & HBR
Box, 0.1 m
Radar Cross Section
0.035 m², Medium (>0.1 m² and < 1m²)

Expand to show TLE details & history
Last TLE update: 1 day ago

TLE from 1 day ago
0 OBJECT AH
1 67279U 25313AH  26170.76963954  .00005505  00000-0  23753-3 0  9998
2 67279  97.3919 245.3392 0013679   1.4198 358.7075 15.22856840 26349
Epoch: 2026-06-19T18:28Z
TLE epoch observation values (Epoch: 2026-06-19T18:28:16.856Z)
Latitude
-0.00002°
Longitude
60.27511°
Altitude
490.919 km
Speed
7.625 km/s
True Right ascension
16h 21m 21s
True Declination
0° 00' 00"
Sunlit
Object was in full shadow at epoch
Visualization orbit readout
Latitude
Unknown
Longitude
Unknown
Altitude
Unknown
Speed
Unknown
Apparent Right ascension
Unknown
Apparent Declination
Unknown
Sunlit
N/A
Visualization observer readout
Local Sidereal Time
10:19:42
Azimuth
Unknown
Elevation
Unknown
Doppler factor
Unknown
Orbital elements
Apogee altitude
503.591 km
Perigee altitude
484.789 km
Semi-major axis
6,872.327 km
Eccentricity
0.00137
Inclination
97.3919°
RAAN
245.3392°
Arg. of periapsis
1.4198°
True anomaly
358.70396°
Mean anomaly
358.7075°
Eccentric anomaly
358.70573°
Mean motion
3.80967 °/min
Orbital period
94.5 mins
BSTAR
0.00023753
Loading maneuver chart data...
Computing Atmospheric mass density...
Loading historical data...
Loading historical data...
Loading historical data...
Loading historical data...
Loading historical data...
Loading historical data...
Loading historical data...

Documentation

Showing up to 5 results
|